Time,TemperatureF,DewpointF,PressureIn,WindDirection,WindDirectionDegrees,WindSpeedMPH,WindSpeedGustMPH,Humidity,HourlyPrecipIn,Conditions,Clouds,dailyrainin,SoftwareType,DateUTC
2013-06-22 11:02:00,77.0,64.0,30.38,ENE,59,2.0,4.0,64,0.00,,,0.00,,2013-06-22 15:02:00,
2013-06-22 11:34:00,79.0,65.0,30.38,NNE,31,2.0,3.0,63,0.00,,,0.00,,2013-06-22 15:34:00,
2013-06-22 11:43:00,80.0,65.0,30.38,South,190,3.0,4.0,61,0.00,,,0.00,,2013-06-22 15:43:00,
2013-06-22 11:53:00,80.0,67.0,30.38,ESE,104,2.0,3.0,64,0.00,,,0.00,,2013-06-22 15:53:00,
2013-06-22 12:02:00,79.0,65.0,30.38,NE,46,3.0,3.0,62,0.00,,,0.00,,2013-06-22 16:02:00,
2013-06-22 12:12:00,79.0,65.0,30.37,East,101,2.0,3.0,63,0.00,,,0.00,,2013-06-22 16:12:00,
2013-06-22 12:34:00,80.0,66.0,30.37,SW,217,3.0,4.0,63,0.00,,,0.00,,2013-06-22 16:34:00,
2013-06-22 12:43:00,81.0,64.0,30.37,NNE,14,4.0,5.0,57,0.00,,,0.00,,2013-06-22 16:43:00,
2013-06-22 13:02:00,81.0,65.0,30.37,SW,233,1.0,1.0,59,0.00,,,0.00,,2013-06-22 17:02:00,
2013-06-22 13:11:00,82.0,67.0,30.36,SE,141,0.0,1.0,61,0.00,,,0.00,,2013-06-22 17:11:00,
2013-06-22 13:22:00,83.0,65.0,30.37,North,349,3.0,4.0,54,0.00,,,0.00,,2013-06-22 17:22:00,
2013-06-22 13:34:00,83.0,65.0,30.37,NNE,23,2.0,5.0,55,0.00,,,0.00,,2013-06-22 17:34:00,
2013-06-22 13:43:00,84.0,64.0,30.36,WSW,243,1.0,4.0,52,0.00,,,0.00,,2013-06-22 17:43:00,
2013-06-22 13:52:00,86.0,66.0,30.36,NW,309,1.0,2.0,52,0.00,,,0.00,,2013-06-22 17:52:00,
2013-06-22 14:02:00,87.0,65.0,30.36,SSW,198,2.0,3.0,49,0.00,,,0.00,,2013-06-22 18:02:00,
2013-06-22 14:23:00,85.0,65.0,30.35,ENE,66,1.0,2.0,52,0.00,,,0.00,,2013-06-22 18:23:00,
2013-06-22 14:34:00,83.0,63.0,30.35,SE,127,1.0,2.0,51,0.00,,,0.00,,2013-06-22 18:34:00,
2013-06-22 14:43:00,85.0,63.0,30.35,East,83,3.0,3.0,48,0.00,,,0.00,,2013-06-22 18:43:00,
2013-06-22 14:52:00,83.0,62.0,30.35,ENE,77,1.0,2.0,50,0.00,,,0.00,,2013-06-22 18:52:00,
2013-06-22 15:01:00,84.0,64.0,30.34,SW,222,2.0,5.0,52,0.00,,,0.00,,2013-06-22 19:01:00,
2013-06-22 15:11:00,84.0,64.0,30.33,West,281,2.0,3.0,51,0.00,,,0.00,,2013-06-22 19:11:00,
2013-06-22 15:22:00,84.0,66.0,30.33,South,180,1.0,4.0,54,0.00,,,0.00,,2013-06-22 19:22:00,
2013-06-22 15:33:00,83.0,64.0,30.33,South,181,2.0,4.0,52,0.00,,,0.00,,2013-06-22 19:33:00,
2013-06-22 15:43:00,83.0,64.0,30.33,ESE,108,2.0,3.0,53,0.00,,,0.00,,2013-06-22 19:43:00,
2013-06-22 16:02:00,84.0,66.0,30.32,East,101,3.0,4.0,54,0.00,,,0.00,,2013-06-22 20:02:00,
2013-06-22 16:11:00,84.0,64.0,30.31,East,84,0.0,2.0,52,0.00,,,0.00,,2013-06-22 20:11:00,
2013-06-22 16:22:00,85.0,64.0,30.31,North,1,3.0,6.0,50,0.00,,,0.00,,2013-06-22 20:22:00,
2013-06-22 16:43:00,84.0,65.0,30.29,East,94,0.0,0.0,53,0.00,,,0.00,,2013-06-22 20:43:00,
2013-06-22 16:53:00,84.0,66.0,30.29,East,94,0.0,0.0,55,0.00,,,0.00,,2013-06-22 20:53:00,
2013-06-22 17:01:00,84.0,67.0,30.29,South,177,0.0,0.0,56,0.00,,,0.00,,2013-06-22 21:01:00,
2013-06-22 17:11:00,85.0,66.0,30.28,South,177,0.0,0.0,53,0.00,,,0.00,,2013-06-22 21:11:00,
2013-06-22 17:34:00,84.0,65.0,30.28,NE,48,0.0,1.0,53,0.00,,,0.00,,2013-06-22 21:34:00,
2013-06-22 17:43:00,84.0,64.0,30.27,NE,55,2.0,3.0,52,0.00,,,0.00,,2013-06-22 21:43:00,
2013-06-22 17:53:00,84.0,66.0,30.27,South,181,0.0,0.0,54,0.00,,,0.00,,2013-06-22 21:53:00,
2013-06-22 18:02:00,84.0,66.0,30.27,South,181,0.0,0.0,54,0.00,,,0.00,,2013-06-22 22:02:00,
2013-06-22 18:12:00,83.0,64.0,30.26,SSE,150,1.0,2.0,53,0.00,,,0.00,,2013-06-22 22:12:00,
2013-06-22 18:23:00,83.0,64.0,30.26,South,176,0.0,0.0,53,0.00,,,0.00,,2013-06-22 22:23:00,
2013-06-22 18:33:00,82.0,63.0,30.26,SSE,148,0.0,0.0,53,0.00,,,0.00,,2013-06-22 22:33:00,
2013-06-22 18:43:00,82.0,65.0,30.26,SSE,148,0.0,0.0,57,0.00,,,0.00,,2013-06-22 22:43:00,
2013-06-22 19:01:00,81.0,65.0,30.27,SSE,148,0.0,0.0,58,0.00,,,0.00,,2013-06-22 23:01:00,
2013-06-22 19:11:00,81.0,66.0,30.27,SSE,148,0.0,0.0,61,0.00,,,0.00,,2013-06-22 23:11:00,
2013-06-22 19:22:00,81.0,67.0,30.27,SSE,148,0.0,0.0,63,0.00,,,0.00,,2013-06-22 23:22:00,
2013-06-22 19:34:00,80.0,67.0,30.26,NE,53,1.0,1.0,65,0.00,,,0.00,,2013-06-22 23:34:00,
2013-06-22 19:43:00,80.0,68.0,30.26,NE,37,0.0,0.0,66,0.00,,,0.00,,2013-06-22 23:43:00,
2013-06-22 20:01:00,78.0,67.0,30.27,NE,37,0.0,0.0,68,0.00,,,0.00,,2013-06-23 00:01:00,
2013-06-22 20:11:00,76.0,66.0,30.27,NE,52,2.0,2.0,72,0.00,,,0.00,,2013-06-23 00:11:00,
2013-06-22 20:22:00,75.0,67.0,30.26,NNE,14,1.0,2.0,75,0.00,,,0.00,,2013-06-23 00:22:00,
2013-06-22 20:33:00,75.0,67.0,30.26,North,350,1.0,2.0,77,0.00,,,0.00,,2013-06-23 00:33:00,
2013-06-22 20:42:00,74.0,67.0,30.26,NNE,28,0.0,0.0,78,0.00,,,0.00,,2013-06-23 00:42:00,
2013-06-22 20:53:00,73.0,66.0,30.26,NNE,20,0.0,0.0,80,0.00,,,0.00,,2013-06-23 00:53:00,
2013-06-22 21:01:00,73.0,67.0,30.26,NE,48,1.0,1.0,82,0.00,,,0.00,,2013-06-23 01:01:00,
2013-06-22 21:11:00,71.0,66.0,30.28,NNE,20,1.0,1.0,85,0.00,,,0.00,,2013-06-23 01:11:00,
2013-06-22 21:22:00,71.0,66.0,30.28,NNE,20,1.0,1.0,85,0.00,,,0.00,,2013-06-23 01:22:00,
2013-06-22 21:32:00,71.0,66.0,30.28,NNE,20,0.0,0.0,85,0.00,,,0.00,,2013-06-23 01:32:00,
2013-06-22 21:42:00,71.0,66.0,30.28,NNE,20,0.0,0.0,85,0.00,,,0.00,,2013-06-23 01:42:00,
2013-06-22 21:52:00,71.0,66.0,30.28,NNE,20,0.0,0.0,85,0.00,,,0.00,,2013-06-23 01:52:00,
2013-06-22 22:01:00,71.0,66.0,30.28,NNE,20,0.0,0.0,85,0.00,,,0.00,,2013-06-23 02:01:00,
2013-06-22 22:11:00,71.0,66.0,30.28,NNE,20,0.0,0.0,85,0.00,,,0.00,,2013-06-23 02:11:00,
2013-06-22 22:31:00,70.0,67.0,30.29,NNE,20,0.0,0.0,90,0.00,,,0.00,,2013-06-23 02:31:00,
2013-06-22 22:41:00,70.0,67.0,30.29,NNE,20,0.0,0.0,90,0.00,,,0.00,,2013-06-23 02:41:00,
2013-06-22 22:52:00,70.0,67.0,30.29,NNE,20,0.0,0.0,90,0.00,,,0.00,,2013-06-23 02:52:00,
2013-06-22 23:01:00,69.0,66.0,30.30,NNE,20,0.0,0.0,91,0.00,,,0.00,,2013-06-23 03:01:00,
2013-06-22 23:11:00,69.0,66.0,30.30,NNE,20,0.0,0.0,91,0.00,,,0.00,,2013-06-23 03:11:00,
2013-06-22 23:21:00,69.0,66.0,30.30,NNE,20,0.0,0.0,91,0.00,,,0.00,,2013-06-23 03:21:00,
2013-06-22 23:31:00,69.0,67.0,30.30,NNE,20,0.0,0.0,92,0.00,,,0.00,,2013-06-23 03:31:00,
2013-06-22 23:41:00,69.0,67.0,30.30,NNE,20,0.0,0.0,92,0.00,,,0.00,,2013-06-23 03:41:00,
2013-06-22 23:51:00,69.0,67.0,30.30,NNE,20,0.0,0.0,92,0.00,,,0.00,,2013-06-23 03:51:00,